DW9498 Weather Reports


Display with metric or nautical units.
time (UTC)temp
F
wind
direction
speed
MPH
gust
MPH
rain 1hr
in
rain 24hr
in
rain mn
in
humidity
%
barometer
mb
20260831151325 79 158 0.0 2.0 0.00 0.00 0.00 76 1012.2
20260831150338 79 128 0.0 2.0 0.00 0.00 0.00 76 1012.1
20260831145323 79 356 0.0 1.0 0.00 0.00 0.00 76 1012.3
20260831144329 79 155 0.0 1.0 0.00 0.00 0.00 77 1011.9
20260831143334 78 155 0.0 1.0 0.00 0.00 0.00 78 1011.9
20260831142340 78 156 0.0 0.0 0.00 0.00 0.00 79 1011.8
20260831141325 77 156 0.0 0.0 0.00 0.00 0.00 79 1012.1
20260831140334 77 149 0.0 2.0 0.00 0.00 0.00 79 1012.1
20260831135338 77 148 0.0 0.0 0.00 0.00 0.00 79 1011.9
20260831134342 77 328 0.0 4.0 0.00 0.00 0.00 79 1011.5
20260831133331 77 214 0.0 4.0 0.00 0.00 0.00 79 1011.9
20260831132340 77 230 0.0 2.0 0.00 0.00 0.00 80 1012.1
20260831131326 77 107 0.0 4.0 0.00 0.00 0.00 80 1012.1
20260831130337 77 149 0.0 2.0 0.00 0.00 0.00 81 1011.9
20260831125330 77 138 1.0 2.0 0.00 0.00 0.00 81 1012.1
20260831124337 76 279 0.0 1.0 0.00 0.00 0.00 82 1012.1
20260831123323 76 154 0.0 1.0 0.00 0.00 0.00 83 1012.1
20260831122332 76 154 0.0 2.0 0.00 0.00 0.00 84 1011.6
20260831121359 75 141 0.0 0.0 0.00 0.00 0.00 85 1011.4
20260831120409 75 150 0.0 0.0 0.00 0.00 0.00 86 1011.2
20260831115350 75 141 0.0 0.0 0.00 0.00 0.00 86 1010.9
20260831114342 75 141 0.0 0.0 0.00 0.00 0.00 86 1010.6
20260831113350 75 141 0.0 0.0 0.00 0.00 0.00 86 1010.7
20260831112341 75 141 0.0 0.0 0.00 0.00 0.00 87 1010.3
20260831111341 74 141 0.0 0.0 0.00 0.00 0.00 87 1010.3
20260831110348 74 141 0.0 0.0 0.00 0.00 0.00 86 1010.1
20260831105334 75 141 0.0 0.0 0.00 0.00 0.00 85 1010.2
20260831104339 75 141 0.0 0.0 0.00 0.00 0.00 85 1010.1
20260831103349 76 141 0.0 0.0 0.00 0.00 0.00 85 1010.0
20260831102331 76 141 0.0 0.0 0.00 0.00 0.00 85 1010.1
20260831101350 75 150 0.0 0.0 0.00 0.00 0.00 85 1010.0
20260831100338 75 150 0.0 0.0 0.00 0.00 0.00 86 1009.9
20260831095322 75 147 0.0 0.0 0.00 0.00 0.00 85 1009.8
20260831094340 75 147 0.0 0.0 0.00 0.00 0.00 85 1009.7
20260831093329 76 147 0.0 0.0 0.00 0.00 0.00 84 1009.4
20260831092322 76 147 0.0 0.0 0.00 0.00 0.00 84 1009.4
20260831091347 76 147 0.0 0.0 0.00 0.00 0.00 83 1009.3
20260831090329 76 147 0.0 0.0 0.00 0.00 0.00 83 1009.3
20260831085342 76 197 0.0 0.0 0.00 0.00 0.00 83 1009.2
20260831084356 76 240 0.0 0.0 0.00 0.00 0.00 83 1009.1
20260831083324 76 239 0.0 0.0 0.00 0.00 0.00 83 1009.0
20260831082340 77 239 0.0 0.0 0.00 0.00 0.00 83 1009.0
20260831081326 77 240 0.0 0.0 0.00 0.00 0.00 83 1008.9
20260831080331 77 240 0.0 0.0 0.00 0.00 0.00 82 1009.0
20260831075333 77 240 0.0 0.0 0.00 0.00 0.00 82 1008.8
20260831074354 78 240 0.0 0.0 0.00 0.00 0.00 82 1008.8
20260831073324 78 242 0.0 0.0 0.00 0.00 0.00 82 1009.0
20260831072338 78 246 0.0 0.0 0.00 0.00 0.00 82 1009.1
20260831071324 78 246 0.0 0.0 0.00 0.00 0.00 82 1009.1
20260831070334 78 246 0.0 0.0 0.00 0.00 0.00 82 1009.1
20260831065326 77 246 0.0 0.0 0.00 0.00 0.00 82 1009.2
20260831064330 78 246 0.0 0.0 0.00 0.00 0.00 82 1009.1
20260831063334 78 246 0.0 0.0 0.00 0.00 0.00 80 1009.2
20260831062347 79 246 0.0 0.0 0.00 0.00 0.00 80 1009.2
20260831061333 79 246 0.0 0.0 0.00 0.00 0.00 79 1009.0
20260831060325 80 246 0.0 0.0 0.00 0.00 0.00 78 1009.0
20260831055339 80 246 0.0 0.0 0.00 0.00 0.00 78 1009.0
20260831054343 81 246 0.0 0.0 0.00 0.00 0.00 78 1008.8
20260831053349 81 246 0.0 0.0 0.00 0.00 0.00 77 1008.7
20260831052329 82 244 0.0 0.0 0.00 0.00 0.00 75 1008.5
20260831051338 82 248 0.0 0.0 0.00 0.00 0.00 75 1008.4
20260831050343 81 175 0.0 0.0 0.00 0.00 0.00 76 1008.4
20260831045325 81 154 0.0 0.0 0.00 0.00 0.00 77 1008.5
20260831044352 81 154 0.0 0.0 0.00 0.00 0.00 77 1008.6
20260831043333 81 154 0.0 0.0 0.00 0.00 0.00 75 1008.4
20260831042327 82 154 0.0 0.0 0.00 0.00 0.00 75 1008.5
20260831041343 82 154 0.0 0.0 0.00 0.00 0.00 74 1008.5
20260831040336 82 154 0.0 0.0 0.00 0.00 0.00 73 1008.6
20260831035351 82 154 0.0 0.0 0.00 0.00 0.00 74 1008.7
20260831034400 81 154 0.0 0.0 0.00 0.00 0.00 76 1008.8
20260831033346 81 154 0.0 0.0 0.00 0.00 0.00 77 1008.9
20260831032326 80 154 0.0 0.0 0.00 0.00 0.00 77 1008.9
20260831031331 80 154 0.0 0.0 0.00 0.00 0.00 77 1008.9
20260831030325 81 154 0.0 0.0 0.00 0.00 0.00 77 1009.1
20260831025338 81 154 0.0 0.0 0.00 0.00 0.00 76 1009.1
20260831024344 81 154 0.0 0.0 0.00 0.00 0.00 76 1009.1
20260831023336 81 154 0.0 0.0 0.00 0.00 0.00 75 1009.0
20260831022328 82 154 0.0 0.0 0.00 0.00 0.00 74 1008.9
20260831021352 82 154 0.0 0.0 0.00 0.00 0.00 74 1008.9
20260831020333 82 154 0.0 0.0 0.00 0.00 0.00 73 1008.8
20260831015329 83 154 0.0 0.0 0.00 0.00 0.00 72 1008.8
20260831014334 83 154 0.0 0.0 0.00 0.00 0.00 71 1008.6
20260831013346 84 154 0.0 0.0 0.00 0.00 0.00 70 1008.4
20260831012333 84 154 0.0 0.0 0.00 0.00 0.00 70 1008.4
20260831011335 85 154 0.0 0.0 0.00 0.00 0.00 69 1008.5
20260831010346 87 154 0.0 0.0 0.00 0.00 0.00 67 1008.3
20260831005341 88 154 0.0 0.0 0.00 0.00 0.00 65 1008.3
20260831004330 89 154 0.0 0.0 0.00 0.00 0.00 63 1008.3
20260831003340 90 154 0.0 0.0 0.00 0.00 0.00 60 1008.3
20260831002340 91 154 0.0 0.0 0.00 0.00 0.00 59 1008.4
20260831001342 92 147 0.0 0.0 0.00 0.00 0.00 57 1008.3
20260831000349 93 169 0.0 2.0 0.00 0.00 0.00 55 1008.3
20260830235341 94 166 0.0 3.0 0.00 0.00 0.00 55 1008.3
20260830234327 95 148 0.0 3.0 0.00 0.00 0.00 54 1008.3
20260830233355 95 165 0.0 3.0 0.00 0.00 0.00 54 1008.3
20260830232327 95 161 0.0 2.0 0.00 0.00 0.00 54 1008.2
20260830231334 95 218 0.0 5.0 0.00 0.00 0.00 53 1008.2
20260830230344 95 270 0.0 4.0 0.00 0.00 0.00 54 1008.2
20260830225410 95 172 1.0 4.0 0.00 0.00 0.00 52 1008.1
20260830224342 95 158 1.0 4.0 0.00 0.00 0.00 53 1008.0
20260830223327 94 164 2.0 4.0 0.00 0.00 0.00 53 1008.1
20260830222341 94 230 2.0 5.0 0.00 0.00 0.00 53 1008.1
20260830221326 94 143 2.0 5.0 0.00 0.00 0.00 53 1008.1
20260830220337 94 133 1.0 4.0 0.00 0.00 0.00 53 1008.2
20260830215332 93 176 1.0 5.0 0.00 0.00 0.00 53 1008.1
20260830214338 93 247 2.0 5.0 0.00 0.00 0.00 53 1008.0
20260830213328 93 157 1.0 4.0 0.00 0.00 0.00 53 1008.0
20260830212342 92 176 2.0 6.0 0.00 0.00 0.00 53 1008.0
20260830211343 91 154 2.0 5.0 0.00 0.00 0.00 53 1008.1
20260830210333 91 163 1.0 4.0 0.00 0.00 0.00 57 1008.4
20260830205341 90 161 1.0 4.0 0.00 0.00 0.00 55 1008.5
20260830204344 90 160 1.0 5.0 0.00 0.00 0.00 55 1008.6
20260830203332 89 121 1.0 5.0 0.00 0.00 0.00 57 1008.8
20260830202327 88 308 1.0 3.0 0.00 0.00 0.00 58 1008.9
20260830201335 89 130 1.0 5.0 0.00 0.00 0.00 56 1008.6
20260830200346 89 130 1.0 5.0 0.00 0.00 0.00 56 1008.5
20260830195358 89 153 1.0 7.0 0.00 0.00 0.00 58 1008.7
20260830194338 89 179 1.0 6.0 0.00 0.00 0.00 61 1008.8
20260830193330 87 297 1.0 5.0 0.00 0.00 0.00 62 1009.0
20260830192340 87 148 1.0 4.0 0.00 0.00 0.00 62 1009.2
20260830191343 87 150 2.0 6.0 0.00 0.00 0.00 61 1009.0
20260830190348 87 150 3.0 6.0 0.00 0.00 0.00 60 1008.9
20260830185336 87 266 1.0 5.0 0.00 0.00 0.00 60 1008.8
20260830184339 87 194 2.0 6.0 0.00 0.00 0.00 59 1008.9
20260830183346 87 163 1.0 5.0 0.00 0.00 0.00 59 1008.8
20260830182335 86 197 1.0 7.0 0.00 0.00 0.00 59 1008.9
20260830181337 86 280 1.0 8.0 0.00 0.00 0.00 59 1009.1
20260830180329 87 166 1.0 5.0 0.00 0.00 0.00 58 1009.4
20260830175323 87 166 2.0 9.0 0.00 0.00 0.00 57 1009.5
20260830174329 87 264 3.0 7.0 0.00 0.00 0.00 56 1009.5
20260830173338 87 209 2.0 9.0 0.00 0.00 0.00 56 1009.5
20260830172325 87 266 4.0 7.0 0.00 0.00 0.00 56 1009.5
20260830171333 87 150 3.0 8.0 0.00 0.00 0.00 55 1009.5
20260830170400 88 161 1.0 6.0 0.00 0.00 0.00 58 1009.4
20260830165335 86 178 3.0 10.0 0.00 0.00 0.00 57 1009.4
20260830164353 86 183 3.0 6.0 0.00 0.00 0.00 56 1009.4
20260830163331 86 178 3.0 8.0 0.00 0.00 0.00 55 1009.5
20260830162340 86 297 2.0 6.0 0.00 0.00 0.00 56 1009.4
20260830161342 85 268 2.0 8.0 0.00 0.00 0.00 58 1009.3
20260830160351 85 179 3.0 7.0 0.00 0.00 0.00 58 1009.4
20260830155335 84 158 4.0 10.0 0.00 0.00 0.00 59 1009.3
20260830154328 84 215 0.0 3.0 0.00 0.00 0.00 63 1009.3
20260830153337 83 203 0.0 3.0 0.00 0.00 0.00 64 1009.5
20260830152324 83 214 0.0 3.0 0.00 0.00 0.00 65 1009.4